#timestamp,LO_Frequency,Hit,StdDev 
1595773275.2,286046991.9,P
1595773295.0,286046991.7,P
1595773295.9,286046991.7,P
1595773315.8,286046992.0,Y
1595773335.6,286047000.2,P
1595773355.4,286047000.8,N
1595773375.3,286047000.9,N
1595773395.1,286047000.7,N
1595773396.0,286047000.7,N
1595773415.8,286047000.5,N
1595773435.7,286047000.7,N
1595773455.5,286047001.0,N
1595773475.3,286047000.8,N
1595773495.2,286046998.4,N
1595773515.0,286046999.0,N
1595773515.9,286046999.0,N
1595773535.8,286046998.8,N
1595773555.6,286046999.4,N
1595773575.4,286046998.3,N
1595773595.3,286046999.5,N
1595773615.1,286046999.6,N
1595773635.9,286046999.6,N
1595773655.7,286046996.6,N
1595773675.5,286046999.1,N
1595773695.4,286046996.8,N
1595773715.2,286046996.9,N
1595773735.0,286046996.6,N
1595773735.9,286046996.6,N
1595773755.8,286046996.9,N
1595773775.6,286046996.6,N
1595773795.5,286046996.7,N
1595773815.3,286046997.8,N
1595773835.1,286046997.5,N
1595773855.9,286046997.7,N
1595773875.7,286046997.5,N
1595773895.5,286046997.7,N
1595773915.4,286046997.8,N
1595773935.2,286046997.6,N
1595773955.0,286046997.9,N
1595773956.0,286046997.9,N
1595773975.8,286046995.6,Y
1595773995.6,286046997.7,P
1595774015.5,286046997.2,P
1595774035.3,286046999.6,N
1595774055.1,286046997.2,Y
1595774075.9,286047000.9,P
1595774095.7,286047002.3,N
1595774145.6,286047000.5,E
1595774155.5,286047000.5,N
1595774175.3,286047000.3,P
1595774195.2,286047001.1,P
1595774215.0,286047001.1,Y
1595774215.9,286047001.1,P
1595774235.8,286046998.4,P
1595774255.6,286046998.4,N
1595774275.4,286046999.4,N
1595774295.3,286046998.1,N
1595774315.1,286046998.2,N
1595774335.9,286046998.8,N
1595774355.7,286046999.2,N
1595774375.5,286046996.6,Y
1595774395.4,286046996.5,P
1595774415.2,286046996.5,N
1595774435.0,286046999.2,N
1595774435.9,286046999.2,N
1595774455.8,286046999.6,N
1595774475.6,286046999.6,N
1595774495.5,286046996.5,N
1595774515.3,286046998.9,N
1595774535.1,286046999.6,N
1595774555.9,286046996.5,N
1595774575.7,286046999.3,N
1595774595.5,286046998.8,N
1595774615.4,286046999.0,N
1595774635.2,286046999.4,N
1595774655.1,286046999.3,N
1595774656.0,286046999.3,N
1595774675.8,286046996.7,N
1595774695.6,286046996.7,N
1595774715.5,286046997.0,N
1595774735.3,286046997.2,N
1595774755.1,286046997.7,N
1595774775.9,286046997.7,N
1595774795.7,286046997.8,N
1595774815.6,286046998.0,N
1595774835.4,286046995.0,Y
1595774855.2,286046998.9,P
1595774875.1,286046999.4,N
1595774876.0,286046999.4,N
1595774895.8,286046998.4,Y
1595774915.7,286046998.8,P
1595774935.5,286046998.6,P
1595774955.3,286046998.3,P
1595774975.2,286046998.3,Y
1595774995.0,286047000.0,P
1595774995.9,286047000.0,N
1595775015.8,286047000.6,N
1595775035.6,286047000.5,N
1595775055.4,286047000.6,N
1595775075.3,286047000.6,N
1595775095.1,286047000.7,N
1595775115.8,286047001.1,N
1595775135.7,286047000.7,N
1595775155.5,286047000.7,N
1595775175.4,286047000.6,N
1595775195.2,286046998.1,Y
1595775215.0,286046998.8,P
1595775215.9,286046998.8,N
1595775235.8,286046998.9,N
1595775255.6,286046998.1,N
1595775275.4,286046998.2,N
1595775295.3,286046998.9,N
1595775315.1,286046999.1,N
1595775335.9,286046997.1,Y
1595775355.7,286046998.6,P
1595775375.5,286046998.4,P
1595775395.4,286046998.4,P
1595775415.2,286046998.5,Y
1595775435.1,286047000.3,P
1595775436.0,286047000.3,N
1595775455.8,286046999.9,N
1595775475.6,286046999.8,N
1595775495.5,286047001.1,N
1595775515.3,286047000.8,N
1595775535.1,286047001.1,N
1595775555.9,286046998.6,N
1595775575.7,286046998.5,N
1595775595.6,286046998.3,N
